ARIANE 1 DEB

Satellite information

Favourite Embed

Satellite Type and Status

DEBRISIN ORBIT

Key statistics

Satellite ARIANE 1 DEB at a glance.

Uptime

14540

Days in orbit

Revolutions

≈ 14.4

Per day

Orbit

SSO

Sun Synchronous Orbit

Inclination

98.3

Latest

Satellite identification and parameters

Extended collection of information and parameters for ARIANE 1 DEB.

Object identification

Identified? True

Debris? True

Object name: ARIANE 1 DEB

International designator: 1986-019R

Object number (NORAD): 17121

Object ID (CCSDS): 17121

Country: FRANCE (FR)

Current information (Y/N): Y

RCS size: MEDIUM

Orbital parameters

Period: 100.324 minutes

Inclination: 98.2836 deg

SMA: 7152.039 km

Apoapsis: 811.858 km

Periapsis: 735.949 km

RAAN: 340.6497 deg

Eccentricy: 0.00530682

Argument of periapsis: 262.2004 deg

Mean anomaly: 215.9633 deg

Mean motion: 14.3535054 rev/day

Mean motion (dot): 0.0000178 rev/day2

B* drag term: 0.00062540409 1/REarth

Two-line elements (TLE)

Creation date: Dec. 14, 2025, 3:07 a.m.

Reference frame: TEME

Reference center: EARTH

Epoch: Dec. 13, 2025, 1:39 p.m. UTC

TLE line 0: 0 ARIANE 1 DEB

TLE line 1: 1 17121U 86019R 25347.56913411 .00001780 00000-0 62540-3 0 9993

TLE line 2: 2 17121 98.2836 340.6497 0053068 262.2004 215.9633 14.35350540 31004

Live tracking on map

Real-time ground track for satellite ARIANE 1 DEB.

In-orbit conjunctions

A list of the most updated potential collisions computed for object ARIANE 1 DEB.

Target Orbit TCA Probability of collision Miss distance Type
SL-16 DEB LEO 2025-07-27 20:45:28 0.0001669925 374.0 (m) DEBRIS
NOAA 16 DEB SSO 2025-07-21 05:31:23 0.0001061196 259.0 (m) DEBRIS

Associated space launch

SPOT 1 is a French Earth observation satellite. Viking is Sweden's first satellite.

ARIANE 1 DEB was lifted into orbit during the mission ‘Ariane 1 | SPOT 1 & Viking’, on board a Ariane 1 space rocket.

The launch took place on Feb. 22, 1986, 1:44 a.m. from Ariane Launch Area 1 (ELV).

For more information about the launch, click the button.

Launch to space Ariane 1 | SPOT 1 & Viking
Ariane 1 | SPOT 1 & Viking

Agency: N/A

Status: Launch Successful

Launch date: Feb. 22, 1986, 1:44 a.m. UTC

Rocket: Ariane 1

Launch pad: Ariane Launch Area 1 (ELV)

Location: Guiana Space Centre, French Guiana

...

Latest news about this satellite

There are no fresh news available about this satellite. Check back as we update our databases every day.


Newsletter sign-up

Weekly statistics, charts and insights to help you stay on top of the space industry.